CAPE
603 632 645 669 695 812 882 900 733 474 419 362 337 352 346 286 294 300 274 289 218 199 202 156 147 137 288 690 884 1116 1110 1146 1063 1173 1273 1222 1295 1159 1039 992 986 912 943 941 861 981 1011 970 963 994 844 928 911 962 1146 1347 1570 1702 1758 1817 1720 1702 1683 1620 1683 1689 1694 1704 1808 1834 1817 1824 1804 1850 1947 1967 2092 2045 2135 2033 2080 1974 1880 1900 2214
686 710 839 770 796 832 834 630 480 468 408 369 400 432 468 475 489 484 511 449 415 449 553 491 341 227 164 44 267 618 985 1023 1034 1031 1209 1231 1175 1096 1035 961 970 979 1200 1098 1103 1236 1130 964 1072 994 986 724 697 684 1202 1072 1467 1737 1826 1767 1689 1580 1587 1662 1551 1535 1564 1643 1635 1681 1725 1834 1895 1860 1936 2077 1968 2012 1983 2040 1944 1952 1819 2347 1984
676 751 886 882 897 813 548 449 454 458 401 510 510 528 540 555 537 512 517 520 436 363 437 518 530 506 465 288 89 40 523 908 964 1068 1238 1346 1201 965 1054 1018 979 1023 1372 1361 1330 1364 1315 1168 1092 911 798 820 682 613 974 1111 1418 1788 1746 1713 1690 1616 1647 1530 1447 1382 1445 1426 1485 1653 1867 1983 2088 2069 2230 2109 2039 1950 1942 1943 1974 1930 2114 2263 1976
630 806 949 815 621 552 542 471 461 526 576 560 593 508 570 538 544 554 561 531 457 409 323 343 485 445 502 512 401 45 88 500 961 1011 1128 1156 1223 968 1069 1191 1106 1179 1132 1368 1392 1334 1316 1114 1037 922 911 708 454 560 752 1106 1134 1453 1711 1745 1723 1680 1555 1596 1480 1466 1412 1536 1719 1810 1999 1727 1601 1481 1673 1800 1686 1844 1916 1755 1869 1694 1892 1654 1683
676 703 820 634 475 520 533 462 576 655 668 594 610 605 506 599 515 537 418 298 335 315 394 415 361 465 482 525 503 386 62 221 565 968 1178 1212 1303 1240 1190 1137 1033 1248 1147 1287 1404 1374 1334 1114 970 1059 753 808 718 697 787 710 907 1176 1229 1605 1580 1677 1604 1557 1476 1596 1632 1644 1740 1900 1348 995 1068 1179 1479 1493 1605 1678 1925 1825 1604 1715 1521 1533 1390
602 740 717 436 495 531 603 594 651 636 656 616 605 588 600 551 336 194 171 126 138 205 388 461 466 518 443 564 557 518 428 290 455 703 941 1297 1338 1312 1088 1121 1090 1282 1287 1369 1428 1419 1345 1122 1028 1073 1034 702 941 835 894 782 852 1062 1092 1429 1408 1486 1514 1525 1558 1671 1649 1616 1322 945 970 836 959 1178 1436 1491 1584 1722 1868 1834 1558 1621 1495 1395 1412
667 669 431 462 539 700 680 665 667 619 583 562 588 586 504 440 232 107 79 96 176 193 402 568 537 494 573 622 591 580 544 663 643 646 1108 1322 1373 1333 1159 1214 1104 1261 1416 1397 1454 1442 1367 1156 1078 1187 1092 974 903 808 619 640 580 766 994 1247 1326 1342 1494 1617 1636 1651 1728 1579 1066 879 830 868 718 1021 1324 1464 1654 1670 1816 1608 1613 1555 1490 1406 1365
651 531 341 453 678 671 584 545 511 524 513 488 456 438 452 308 84 49 57 87 179 287 452 594 673 715 813 732 665 637 734 894 898 738 1451 1389 1332 1307 1371 1303 1385 1336 1482 1440 1520 1362 1253 1139 1168 1002 1000 919 803 725 576 610 651 521 954 1046 1237 1337 1588 1593 1706 1708 1638 1065 829 875 969 1021 859 1015 1426 1582 1747 1857 1745 1601 1568 1599 1291 1304 1308
271 130 286 612 610 562 531 493 514 506 531 424 413 429 297 120 84 41 66 112 168 263 460 574 677 825 916 991 918 865 874 910 825 964 1344 1356 1422 1329 1320 1290 1333 1301 1384 1405 1447 1438 1323 1305 1160 1070 1022 874 818 706 584 657 645 447 872 1186 1182 1456 1561 1728 1650 1592 1403 986 965 821 1044 1107 1032 1207 1316 1729 1642 1716 1539 1524 1356 1258 1199 1150 1111
345 226 213 280 532 549 556 503 490 533 546 404 399 416 234 184 115 107 118 90 101 264 369 482 711 885 968 1086 1018 933 882 958 888 1034 1521 1339 1457 1382 1374 1330 1159 1374 1496 1390 1532 1465 1382 1307 1233 1213 1189 1077 872 514 544 704 678 806 1075 1231 1303 1489 1552 1636 1647 1440 1006 1117 1074 1016 914 1323 1228 1263 1461 1560 1402 1411 1299 1258 1180 1055 1075 1198 980
188 123 291 402 591 634 526 562 478 524 513 442 391 317 316 241 179 197 116 80 114 187 396 539 804 934 1025 1204 1120 967 946 907 829 1201 1446 1571 1473 1387 1402 1467 1451 1565 1526 1517 1573 1531 1454 1302 1348 1303 1236 1095 862 740 751 742 780 766 904 1332 1392 1468 1480 1559 1706 1338 1140 884 907 974 1174 1558 1321 1274 1233 1182 1238 1110 1092 869 1124 1120 1093 961 897
95 196 183 405 742 558 497 582 458 370 561 529 415 433 339 282 374 165 121 79 52 172 267 511 684 997 1064 1261 1255 982 895 942 949 1387 1618 1732 1547 1464 1680 1586 1514 1507 1385 1510 1408 1345 1406 1333 1198 1206 1098 969 914 840 701 555 659 866 1129 1294 1305 1366 1572 1701 1793 1388 959 1022 1312 1165 1224 1408 1306 1104 1082 1065 1060 1012 986 956 990 1047 941 890 950
153 217 295 390 402 532 593 394 254 321 526 632 547 486 419 412 240 123 68 30 55 116 259 450 754 867 1034 1304 1292 984 913 1000 1111 1473 1616 1718 1590 1566 1709 1696 1652 1494 1474 1447 1365 1339 1301 1182 1157 1156 979 950 914 827 903 715 802 900 1044 1359 1313 1595 1704 1802 1810 1217 1032 1145 1550 1230 1273 1285 1110 1296 1324 1265 1158 1221 1138 1057 1013 1037 973 832 899
226 299 292 243 395 719 527 355 216 253 600 669 619 592 399 304 136 46 7 2 34 118 252 601 721 923 1057 1135 1233 1057 916 997 1206 1594 1673 1795 1779 1686 1651 1670 1690 1518 1519 1539 1450 1374 1342 1351 1185 1094 1056 1080 899 818 674 730 870 977 1322 1406 1574 1571 1844 1595 1542 1057 944 1195 1252 1443 1479 1384 1165 1387 1366 1305 1307 1244 1147 1078 1021 1125 1047 958 891
320 333 374 418 409 462 515 364 185 255 628 563 628 498 332 166 51 15 0 0 31 80 300 580 728 900 926 1140 1222 1193 1030 1128 1351 1698 1542 1725 1708 1742 1617 1634 1576 1515 1552 1488 1466 1374 1410 1367 1314 1151 1138 915 694 709 668 767 758 985 1194 1620 1764 1621 1838 1754 1524 1186 1304 1059 1037 1514 1319 1134 1248 1148 1246 1281 1157 1084 1061 1072 1153 1065 909 757 842
483 283 448 577 709 762 376 395 229 277 394 477 489 463 320 102 102 30 0 0 8 89 294 487 666 800 953 1028 1125 1218 1308 1464 1536 1768 1779 1657 1683 1729 1678 1620 1637 1627 1533 1461 1452 1542 1448 1292 1182 1106 1002 966 841 877 943 807 934 1060 1474 1616 1730 1680 1465 1310 1249 1254 1148 905 919 1229 1027 1243 1133 1130 1223 1215 1153 1078 897 964 1114 1024 891 851 836
248 332 323 434 809 688 461 326 308 163 233 175 316 363 222 171 44 65 0 0 5 47 230 360 632 734 794 810 980 1090 1311 1467 1598 1672 1690 1801 1857 1784 1863 1717 1734 1771 1643 1690 1561 1584 1683 1212 1166 1239 1109 839 920 957 1006 983 1090 1149 1617 1845 1477 1358 1405 1436 1321 1246 941 778 896 1005 1080 1206 1150 1125 1176 1266 1333 990 1155 964 913 831 590 692 744
326 446 694 721 864 773 696 575 698 572 251 207 310 247 170 167 182 39 0 0 0 10 96 245 322 504 418 442 762 1060 1104 1221 1389 1636 1804 1781 1587 1722 1698 1915 1790 1851 1842 1642 1758 1764 1422 1336 1394 1274 1267 1192 929 1032 1148 1030 1311 1479 1422 1493 1611 1711 1218 1268 1316 1186 893 1044 1065 1318 1256 1098 1054 1088 1128 1034 1114 1197 1228 1020 1068 1069 1057 1056 1205
532 480 1094 1000 715 594 669 488 466 390 488 504 509 347 361 232 177 122 1 0 0 0 21 57 21 54 158 202 460 790 864 820 1328 1496 1596 1690 1318 1244 1719 1786 1722 1982 1865 2007 1915 1733 1464 1533 1611 1448 1398 1250 1018 907 1078 1223 1566 1595 1402 1480 1770 1440 1326 1179 1238 914 1206 1201 1149 1319 1094 1310 1183 961 1104 1035 1031 1050 1108 1073 1163 1126 1038 1151 1090
454 602 683 668 459 344 474 403 484 537 550 534 505 455 524 541 228 274 0 0 0 19 13 50 31 30 163 198 273 887 767 778 998 1355 1178 1872 1314 1303 1420 1595 1440 1445 1647 1534 1781 1940 1798 1753 1326 1273 1265 1283 1260 1137 1136 1373 1630 1317 1471 1344 1408 1336 854 711 972 887 973 1149 1423 1105 1166 1028 1155 1091 982 976 923 942 846 1055 1077 1081 1094 1076 1004
486 708 683 506 308 348 453 550 573 505 553 483 586 331 396 938 502 373 128 0 0 0 20 14 7 9 41 83 142 333 578 678 916 490 913 894 864 908 1315 1228 1323 1078 1174 1195 1297 1576 1555 1422 1381 1511 1574 1782 1552 1238 1004 1033 1168 1309 1711 1636 1169 862 580 688 782 798 1057 1239 1413 1078 1075 1003 1035 877 1093 1082 754 919 688 928 1043 1099 1078 1095 1042
636 404 643 550 520 542 312 593 556 442 540 414 473 258 399 642 565 814 253 30 118 118 149 87 81 192 0 125 344 626 779 432 485 246 756 821 1116 782 1087 1170 1222 1255 1343 1420 1371 1252 1577 1647 1537 1697 1882 1696 1243 1274 1237 1330 1272 1346 1559 1720 1384 798 551 839 984 860 952 1318 1003 1052 1079 1071 954 884 924 929 779 543 582 495 928 939 1067 1089 931
250 297 406 572 606 562 607 616 579 513 326 530 324 261 336 486 390 268 168 159 294 447 88 18 0 1 11 14 579 0 90 559 288 192 455 586 538 1057 1220 1365 1484 1439 1387 1630 1724 1561 1507 1772 1772 1403 1184 1438 1285 1583 1286 1278 1386 1345 1015 1278 1191 773 874 1003 1105 900 1167 1244 1033 1049 1044 966 868 775 651 683 698 735 662 624 711 891 1024 1116 1014
230 232 280 265 558 555 717 798 504 566 448 360 374 536 462 608 397 83 286 419 226 173 201 118 23 10 83 3 587 59 0 2335 21 117 314 528 908 678 1097 1311 1512 1678 1992 2026 1206 1354 1549 1822 1298 971 1060 1192 1277 1087 969 1345 1148 1206 670 865 1186 911 814 1088 1097 1130 1206 1094 1028 1137 916 897 766 799 771 649 722 546 397 515 447 761 995 941 1028
230 236 134 328 456 799 806 673 584 818 457 579 487 532 649 652 321 254 119 123 92 103 246 127 119 174 7 23 0 166 0 3 100 281 285 300 410 677 1213 1426 1578 1364 1492 1197 1290 1560 1644 1028 885 1174 1166 854 826 974 1028 942 899 963 914 1035 1068 806 906 1123 1314 1050 935 861 991 874 854 860 824 888 822 718 642 497 310 382 497 468 521 507 981
482 213 271 313 189 305 662 901 994 693 720 469 494 581 720 582 342 403 264 94 64 153 70 120 57 118 220 0 178 85 15 2 164 178 12 565 393 477 486 692 686 819 1622 1376 1180 1434 1188 992 845 962 1190 1163 883 846 934 1028 842 998 840 734 832 884 758 1140 1240 1151 818 684 1092 932 979 997 920 978 900 686 551 514 464 463 366 310 368 419 748
279 349 411 448 547 696 438 748 829 842 522 444 520 522 577 766 575 221 172 226 151 119 71 109 78 104 105 284 82 1 54 18 34 338 158 25 453 414 413 560 535 627 806 699 791 1092 785 779 880 870 872 970 1013 781 597 863 878 704 780 1004 1259 1098 973 887 1174 1141 870 958 962 1000 975 868 896 785 619 638 585 521 607 665 614 336 372 169 320
341 506 549 678 711 644 853 872 727 716 463 378 516 391 516 469 834 835 357 423 301 252 279 276 139 18 198 158 9 7 1 14 61 26 56 121 152 288 402 510 408 374 649 791 643 776 1004 742 469 834 666 1297 927 598 710 648 832 948 1164 1308 1090 737 822 884 1143 1176 918 832 1206 1116 1110 878 838 872 697 630 682 482 636 618 680 335 360 406 264
567 664 536 646 495 604 700 525 566 489 548 652 406 493 508 638 792 711 728 670 531 591 558 168 27 28 54 118 7 74 4 3 42 5 67 212 234 385 503 567 332 318 502 540 495 986 1195 772 640 589 976 1658 1036 1089 978 635 504 779 1181 1138 1193 1015 895 662 891 1103 1400 1213 1090 1097 1187 993 1027 883 862 771 678 552 444 507 652 466 360 326 311
490 583 526 458 332 311 378 660 763 634 806 758 751 825 859 867 738 669 692 871 840 509 500 277 127 18 6 149 41 14 88 16 67 18 0 142 429 475 217 536 752 458 437 659 541 830 978 883 866 1118 1181 1511 1634 2104 2373 1855 1048 985 1353 1664 1132 872 872 1292 1112 1119 1379 1187 1246 1255 1213 1078 932 916 929 815 699 611 409 340 404 586 384 190 244
435 320 338 343 544 429 903 790 808 804 880 843 839 756 874 854 767 731 702 666 677 598 534 385 107 122 207 110 79 108 5 5 0 65 183 257 293 697 232 339 73 775 78 366 622 756 1023 705 607 1271 1168 1759 2207 2517 2079 989 1350 1373 1508 1501 1395 1036 1056 1185 1195 1324 1319 1243 1192 1149 1201 1233 1044 981 846 844 764 686 611 371 288 453 521 560 401
350 386 392 575 847 1137 1214 1396 1345 1282 1319 1033 1015 939 998 874 937 771 790 758 854 580 609 392 179 144 100 238 150 36 105 10 86 205 35 90 23 12 117 172 132 510 86 436 350 526 380 630 844 1319 1418 1801 1854 1812 2093 1070 1206 1119 1263 1330 1295 1228 1035 1020 1311 1307 1148 1314 1214 1172 1055 1112 1063 1030 851 736 749 768 567 518 595 596 527 682 836
430 482 618 1048 1194 1286 1360 1398 1567 1523 1371 1394 1342 1332 1037 875 998 934 858 825 908 1071 968 357 172 135 168 381 227 62 141 153 269 83 198 0 4 93 0 54 53 1121 519 225 1118 466 472 450 827 1100 1297 1687 1906 1895 1895 1767 1423 1536 1507 1271 1063 860 927 1248 1118 1219 1080 1188 1309 932 787 868 1088 1007 825 753 784 859 788 800 857 772 817 859 671
465 761 1042 1037 1063 1118 1221 1443 1486 1613 1581 1468 1412 1389 1725 1227 1143 1053 992 982 811 976 963 771 388 251 155 122 55 164 247 40 0 55 96 73 36 32 58 272 140 929 433 279 954 632 655 532 536 642 1026 1143 1492 1402 1651 1556 1355 1276 1220 1456 1430 1066 820 928 1072 1154 1214 1057 1318 1066 983 1272 1298 989 996 1027 907 818 770 791 916 834 810 832 847
694 900 1184 1071 1247 1226 1164 1176 1530 1693 1477 1393 1350 1466 1822 1225 1138 1184 1062 1045 849 827 828 1121 345 184 112 233 202 204 46 49 148 255 26 191 106 37 242 125 280 84 596 596 654 555 729 582 705 539 924 1418 1432 1640 1286 1353 1459 1394 1543 1609 1651 1240 664 543 1336 1033 1214 1160 970 861 966 1078 951 676 1205 1129 1041 917 799 799 741 797 779 747 782
968 1112 1146 1230 1113 943 1016 1190 1477 1369 1334 1556 1587 1825 1912 1570 1432 1044 1241 1044 971 759 893 931 266 284 265 249 271 194 68 195 118 178 171 36 65 70 109 156 538 227 484 572 521 354 420 1076 806 827 982 809 1256 1302 1886 1559 1381 1432 1414 1214 1362 1559 894 882 893 1118 1150 933 882 1060 1124 1234 1271 1122 1378 1537 1137 1126 1011 930 882 776 817 752 796
1146 1140 1141 1152 906 962 1381 1371 1531 1533 1546 1598 1524 1484 1823 1401 1281 1299 1233 1034 1040 954 652 762 408 260 323 246 422 528 152 173 173 130 207 187 180 146 119 354 232 241 687 384 473 462 367 782 1158 1088 883 846 1258 1339 1854 1528 1336 1384 1162 869 863 1016 845 881 696 751 832 910 1286 1354 1336 1243 1358 1429 1571 1265 1095 1080 1121 1074 956 842 760 752 724
1285 1286 1300 1146 1068 1031 1226 1402 1364 1519 1545 1440 1652 1541 1702 1361 1426 1550 1238 1258 1047 1071 969 911 596 359 248 311 392 567 385 228 186 264 547 170 188 231 224 436 220 229 255 228 394 267 575 424 1196 1015 1032 1217 1465 1576 1442 1339 1420 1611 1370 1150 1091 837 710 723 674 640 291 618 985 1273 1138 1665 1276 1206 1323 1230 1451 1184 1131 1088 1070 940 839 811 724
1220 1270 1249 1172 966 1058 1350 1258 1423 1498 1489 1801 1406 1208 1539 1152 1285 1212 1204 1180 1233 1255 1130 874 770 606 408 338 565 771 443 348 295 223 297 208 173 223 290 254 209 177 212 34 76 165 332 653 372 1137 1232 896 974 1213 1184 1458 1666 1430 1714 1838 1597 1645 1425 1308 876 662 485 426 466 1405 1573 798 1294 1385 1306 1404 1416 1225 1140 1067 1023 952 856 816 822
1365 1370 1357 979 1038 1095 1226 1450 1530 1508 1537 1576 1114 967 954 1155 1103 1395 1264 1305 1282 1176 1149 992 922 744 435 546 496 564 370 423 478 538 453 449 404 280 463 311 369 190 159 77 100 33 181 445 475 473 1021 719 674 804 947 1781 1316 1970 1828 1695 1376 1263 1242 1326 838 536 476 346 347 344 391 605 1375 950 878 1349 1317 1120 1271 1342 1289 1001 969 941 906
1402 1512 1294 1214 1160 1030 1286 1371 1486 1258 1838 1247 1207 1046 994 976 1205 1301 1247 1182 1313 1237 1398 1278 1012 1021 871 586 606 843 383 353 272 526 518 620 518 484 646 482 331 518 621 284 185 147 198 380 823 418 454 395 129 429 287 846 1745 2029 2164 1704 1287 1277 1345 696 806 654 436 396 416 386 438 376 383 570 1187 1243 846 1163 1410 1258 1333 1208 993 998 964
1466 1462 1340 1398 1277 1235 1368 1474 1534 1436 1361 1382 1346 1799 1262 1146 1182 1089 1225 965 1183 1159 1255 1404 1340 1179 1063 1017 1329 838 581 800 532 552 409 370 496 651 642 706 450 329 529 346 265 219 176 239 307 617 365 206 82 69 226 226 279 251 658 1234 1328 1149 1162 1018 710 574 503 322 360 537 583 561 275 305 918 505 649 1167 1104 1110 789 1200 1022 843 1031
1462 1398 1520 1459 1412 1397 1544 1525 1526 1527 1509 1398 1486 1708 1391 1636 1399 1350 1265 1328 1487 1354 1259 1373 1532 1369 1212 909 945 661 741 278 250 302 176 624 639 498 538 792 727 453 332 252 282 105 140 128 186 223 525 183 102 26 234 53 37 75 922 653 945 1053 741 1362 947 648 410 314 132 0 7 268 418 406 221 50 274 388 540 669 689 602 1189 698 770
1412 1285 1386 1422 1365 1535 1516 1587 1426 1466 1395 1422 1582 1407 1599 1536 1579 1472 1340 1472 1240 1281 1364 1432 1389 1340 1217 1067 1011 1016 297 530 157 72 64 413 799 569 473 492 710 1083 558 207 273 13 92 115 82 206 271 401 244 127 114 327 8 3 106 186 414 40 35 0 301 632 381 150 127 76 0 0 2 425 71 385 54 50 219 430 571 911 980 968 976
1330 1198 1304 1336 1091 1455 1561 1605 1579 1497 1565 1607 1636 1672 1655 1543 1554 1601 1405 1403 1481 1524 1392 1386 1376 1176 1512 1336 1085 869 553 411 518 233 106 191 519 817 535 410 570 633 916 399 303 295 99 63 294 318 422 578 251 583 107 178 239 19 0 17 9 0 0 0 10 694 543 343 148 107 16 14 0 318 95 457 367 8 242 418 488 443 338 388 498
1227 1452 1345 1469 1496 1551 1484 1662 1668 1459 1692 1523 1721 1641 1668 1733 1572 1452 1386 1328 1500 1526 1434 1666 1631 1620 1495 1400 1271 945 952 703 345 362 154 409 651 654 751 695 631 657 850 716 550 445 390 266 240 372 349 592 571 171 478 438 311 383 11 0 0 0 3 38 18 68 84 573 83 83 84 57 0 188 2 55 176 132 155 19 340 635 199 42 333
1031 1317 1319 1467 1468 1504 1507 1497 1648 1581 1568 1601 1668 2208 1417 1830 1458 1474 1332 1310 1639 1582 1775 1592 1860 1804 1901 1744 1635 1500 900 1081 650 468 532 452 541 451 628 764 761 952 1051 843 654 666 320 308 415 360 297 486 675 384 200 289 523 66 230 178 81 110 19 0 0 86 196 182 266 240 216 157 23 10 0 5 2 0 679 0 280 624 147 80 207
836 981 1526 1436 1506 1586 1528 1453 1529 1582 1256 1557 1621 1604 1379 1734 1493 1311 1480 1464 1620 1721 1593 1585 1601 1822 2039 1882 1940 1592 1295 1165 1418 947 574 654 966 1100 816 1032 1155 660 690 810 904 695 743 527 786 822 526 422 505 475 544 360 253 196 621 604 425 107 7 2 0 18 4 2 251 98 26 536 153 2 239 11 0 0 92 254 0 15 616 122 407
984 1006 1006 1328 1562 1568 1510 1414 1563 1502 1632 1588 1722 1468 1815 1509 1454 1502 1539 1584 1448 1780 1498 1581 1897 1982 1856 1843 1913 1858 1668 1674 1274 903 921 894 999 1071 1048 1124 1049 1306 923 1058 1003 711 855 712 826 947 972 653 417 629 569 118 479 127 286 64 165 104 327 4 36 136 0 0 0 7 15 330 50 79 77 105 0 5 0 1061 111 13 1 26 1
1116 987 874 1161 1255 1458 1477 1483 1459 1590 1595 1665 1812 1598 1648 1740 1595 1707 1358 1354 1731 1688 1483 1685 1873 1740 1901 2001 1943 2000 1950 1759 1574 1290 1464 1078 1210 1369 1264 1137 1539 1291 1304 1216 1259 1138 1003 978 806 835 1077 1010 1183 712 569 978 1002 674 562 389 392 182 90 97 52 32 7 2 0 0 0 0 103 181 1359 77 183 1 0 0 0 0 0 424 100
1255 1005 981 940 1157 1459 1512 1443 1512 1543 1601 1734 1630 1846 1778 1690 1416 1233 951 1060 1078 1535 1795 1962 1703 1745 2075 1922 1956 1987 2176 1950 1750 2422 1598 1486 1196 1209 1290 1121 1796 1801 2018 1558 1337 1056 1204 970 815 538 836 811 987 831 850 548 894 630 463 502 558 354 209 268 119 99 221 43 30 18 43 3 0 77 38 180 137 0 0 48 6 0 0 77 84
Wind_Speed
46 45 43 45 45 45 43 41 40 41 41 41 41 41 40 40 40 40 39 38 37 36 34 33 32 31 31 32 33 35 35 38 39 40 39 41 42 44 48 47 46 46 44 44 42 39 38 36 35 37 34 35 33 33 32 34 36 35 35 34 35 35 35 33 31 30 29 29 27 26 25 24 24 23 23 24 25 26 28 28 30 30 29 28 37
44 43 42 43 43 42 41 40 40 40 40 40 40 40 40 40 39 38 37 35 33 32 31 31 32 32 32 nan 32 34 37 40 40 38 38 39 41 45 45 44 45 44 45 44 41 38 38 37 35 36 36 34 32 31 29 32 34 36 35 34 34 35 34 33 31 30 28 27 25 24 24 23 23 22 23 24 26 26 26 25 26 28 27 35 37
40 40 38 39 40 38 39 38 39 40 40 39 39 39 38 37 36 34 32 30 29 30 30 30 31 32 33 34 nan nan 33 36 36 35 34 35 38 40 40 41 43 41 44 44 41 38 41 39 38 38 35 34 33 31 32 23 29 34 34 34 34 33 32 31 30 29 27 26 26 25 25 24 21 21 22 25 27 27 25 24 25 24 32 38 35
36 34 33 35 37 37 37 38 39 39 39 38 37 36 34 32 30 29 28 28 28 29 30 30 29 30 32 32 31 nan nan 28 29 31 30 32 34 34 35 38 39 41 41 40 42 41 43 42 40 38 33 33 33 32 31 30 32 34 34 35 34 32 31 30 29 28 28 28 28 27 29 29 27 25 26 30 28 28 26 24 24 24 30 31 32
32 30 30 31 34 36 38 38 38 38 38 36 34 32 29 28 27 27 27 28 28 29 29 30 29 28 27 27 26 25 nan 24 24 26 29 29 30 30 30 34 35 37 37 36 39 39 42 42 38 36 35 33 31 29 27 23 28 33 34 35 34 33 32 30 29 28 29 30 30 30 34 39 38 37 29 23 19 23 25 24 26 32 29 28 27
32 30 30 32 32 35 38 37 37 36 34 32 30 28 26 25 27 27 28 28 28 28 28 27 26 25 23 22 23 24 23 23 22 23 27 29 29 28 31 32 31 34 32 32 35 37 37 37 35 31 32 32 29 29 30 27 23 25 31 35 36 35 33 31 30 29 30 31 34 38 38 31 30 29 25 21 16 21 24 24 26 28 25 24 25
31 29 30 30 30 33 35 35 34 31 29 28 26 24 25 26 26 27 nan nan 27 26 26 23 21 20 19 19 21 23 22 21 21 23 28 30 29 31 30 28 28 27 29 30 31 31 33 33 30 29 30 32 29 27 28 29 25 23 27 32 35 35 33 33 32 32 33 35 39 34 28 26 27 28 26 19 19 22 23 26 26 27 23 25 25
29 29 29 29 28 31 33 31 29 27 26 24 24 25 25 26 nan nan nan nan 25 24 21 19 17 17 17 17 18 19 20 20 21 23 29 28 29 30 27 24 22 22 23 26 27 27 28 28 26 25 29 29 23 25 25 26 24 19 19 27 31 33 33 33 33 34 36 38 32 27 24 24 27 25 22 21 21 24 24 24 25 24 28 22 23
29 29 29 28 28 30 28 26 25 24 23 23 24 25 26 26 nan nan nan 24 22 20 17 16 15 15 16 16 16 16 18 19 21 22 25 26 27 25 22 20 18 17 17 19 22 22 22 22 22 21 24 24 22 23 23 22 21 18 17 23 28 30 30 31 32 32 34 29 24 24 26 26 26 24 20 22 23 24 23 24 23 27 22 24 22
27 28 27 25 24 26 23 22 21 22 22 24 24 25 26 26 26 25 23 nan 19 17 15 15 16 16 16 16 16 17 17 18 21 21 23 21 20 18 15 15 12 12 12 14 15 17 17 17 17 17 20 21 21 20 20 19 17 17 12 19 24 26 26 26 26 27 27 25 22 27 25 26 23 24 23 25 26 26 25 22 20 22 23 24 23
25 24 22 22 21 21 19 19 20 22 23 24 24 25 25 24 23 22 20 nan 17 16 14 15 17 17 17 17 16 18 18 19 20 20 18 17 16 13 10 9 7 10 10 9 11 13 14 14 14 16 16 16 16 16 17 18 15 13 11 15 18 21 21 20 19 22 26 27 24 24 23 28 23 23 24 23 23 25 24 22 22 24 23 23 23
nan 20 18 16 17 17 18 19 20 22 23 23 24 24 23 22 21 19 18 nan nan 14 15 16 18 18 17 17 18 17 20 19 17 17 15 15 15 11 8 6 5 6 7 8 10 10 11 12 13 12 12 12 15 16 16 16 14 12 11 13 15 17 19 18 18 24 27 23 21 21 22 24 23 22 23 23 23 23 21 21 22 23 24 21 20
18 16 14 12 13 17 19 20 20 21 22 22 22 22 21 20 18 17 nan nan nan 15 16 17 18 17 17 16 16 16 18 16 14 13 12 13 11 7 4 3 2 2 5 7 8 8 10 11 11 11 12 13 15 17 16 14 15 15 14 14 16 17 19 19 19 24 20 19 20 21 21 19 18 23 24 24 22 22 21 22 21 22 25 23 22
12 11 11 12 13 18 20 20 20 21 21 21 21 20 20 18 16 nan nan nan nan 15 16 16 16 16 15 14 14 13 13 12 10 11 9 9 9 4 1 1 2 5 8 9 10 10 11 12 13 13 12 12 13 13 11 15 17 15 15 15 14 17 19 17 22 18 18 18 18 18 18 15 16 23 25 24 23 22 23 22 22 24 27 26 23
9 8 10 13 16 16 21 20 20 20 20 20 19 18 18 17 nan nan nan nan nan nan 13 13 13 14 14 13 12 12 9 8 8 8 6 6 8 7 6 4 5 10 10 10 10 10 10 11 11 11 10 9 11 12 14 15 16 13 11 12 12 16 18 14 15 16 16 18 14 13 16 13 19 21 23 22 21 22 22 22 24 25 25 25 24
7 9 11 12 17 17 18 21 21 21 20 19 17 16 17 16 14 nan nan nan nan nan 11 10 12 13 13 13 12 10 8 5 4 6 5 5 8 9 10 10 12 13 13 12 11 10 10 9 8 8 7 10 10 11 11 13 17 11 8 8 11 14 19 16 11 13 13 12 11 11 12 13 17 18 19 20 19 21 21 23 23 23 24 23 23
6 9 11 13 18 16 17 18 21 23 20 18 15 14 15 15 nan nan nan nan nan nan 8 10 11 12 13 14 12 10 5 3 3 6 5 6 9 9 11 14 16 15 15 15 12 12 10 10 10 9 9 10 9 11 12 14 15 11 5 6 11 17 13 11 11 11 11 13 11 12 11 11 15 16 16 17 18 19 21 21 19 21 22 21 19
7 8 10 12 15 16 14 17 21 19 19 17 15 15 13 14 12 nan nan nan nan nan nan 10 11 14 13 13 14 9 5 6 7 7 7 8 8 9 10 13 15 15 15 13 12 10 9 12 12 9 10 11 11 11 11 14 16 8 6 8 12 12 15 17 11 12 12 12 9 11 11 14 16 16 16 16 18 18 19 20 17 17 18 18 14
6 9 10 12 13 14 16 14 14 13 14 14 15 14 15 13 13 11 nan nan nan nan nan nan nan nan 13 13 14 9 10 11 12 11 10 10 9 10 11 13 14 15 14 12 11 11 11 14 12 11 11 10 8 12 16 18 9 8 9 11 14 15 17 12 8 11 11 10 10 11 13 16 14 16 15 16 16 15 17 17 16 17 17 15 13
6 8 9 11 11 12 12 12 12 13 12 9 8 9 16 15 15 16 nan nan nan nan nan nan nan nan 13 12 13 15 13 14 14 15 13 15 11 13 13 14 15 16 16 14 13 13 12 11 9 11 12 5 4 12 16 12 9 12 13 13 14 18 10 4 7 10 8 9 9 11 14 16 14 14 16 15 15 12 14 15 15 16 15 14 13
5 7 9 9 9 10 11 13 12 11 10 8 8 6 9 18 16 22 15 nan nan nan nan nan nan nan nan nan 18 18 16 16 16 15 14 12 14 13 15 14 16 17 17 15 15 14 12 11 9 9 8 7 9 15 13 13 13 14 11 11 15 10 2 3 6 7 8 6 10 10 16 16 14 15 14 14 15 10 12 13 14 15 15 15 14
6 7 7 10 10 9 11 12 13 11 11 9 9 8 9 13 19 16 15 nan 11 8 8 nan nan 13 nan 15 17 17 17 15 16 15 13 14 16 15 16 17 17 17 17 16 14 13 12 12 11 9 8 8 10 10 10 9 13 13 11 8 5 3 6 3 2 3 5 6 9 11 15 16 14 13 12 12 14 10 10 12 13 14 14 13 13
7 8 8 8 9 11 11 11 11 13 11 8 8 8 7 7 10 11 9 9 8 7 nan nan nan nan nan nan 18 nan nan 16 17 16 15 17 16 17 19 19 16 17 18 19 16 11 10 11 9 7 6 7 6 7 9 6 6 9 8 3 0 2 5 1 1 1 3 6 7 13 13 15 14 13 13 11 9 12 15 15 11 10 10 10 10
5 7 8 8 9 11 12 12 12 11 11 8 4 4 5 8 6 nan 8 8 8 10 10 11 nan nan nan nan 18 nan nan 18 nan 19 12 14 15 21 21 20 20 21 22 19 10 7 7 5 7 9 7 7 8 6 7 6 6 4 5 3 3 4 4 4 3 3 1 3 5 11 12 13 13 12 11 12 11 13 13 13 10 8 9 7 8
7 6 6 7 10 11 12 11 11 11 11 7 7 5 7 7 5 6 7 7 nan 10 11 8 9 12 nan nan nan 19 nan nan 17 17 18 16 16 17 18 18 17 15 16 13 13 8 8 10 9 10 9 10 7 6 8 6 6 6 7 7 4 4 8 8 7 5 2 1 3 8 8 8 8 8 10 11 12 9 9 7 6 11 9 6 8
1 3 4 7 8 11 12 13 13 12 12 10 7 6 6 7 4 6 7 nan nan 9 nan 8 nan 11 14 nan 20 nan nan nan 15 17 nan 18 16 16 17 17 16 15 14 14 16 13 11 11 11 9 12 14 9 10 12 8 8 7 7 10 10 8 10 9 8 7 3 2 2 6 4 4 5 7 8 8 8 5 4 6 9 6 11 19 8
3 2 2 6 7 8 10 13 16 16 14 11 9 7 7 8 6 6 6 7 8 10 nan 8 nan 10 15 17 nan nan nan nan nan 19 18 nan 18 16 18 18 18 16 14 10 17 15 13 13 12 15 16 12 10 10 9 12 12 9 12 14 15 11 12 10 9 8 7 5 1 3 1 2 4 5 5 6 4 3 1 4 6 8 9 12 16
3 3 5 7 10 11 12 14 14 15 17 13 8 6 8 8 8 8 6 8 7 7 9 7 7 nan 14 15 nan nan nan nan nan nan nan 19 21 18 22 19 20 18 18 18 16 21 14 10 10 16 16 15 6 10 12 16 18 16 19 18 16 15 16 14 12 12 12 10 7 3 3 3 3 5 4 6 5 2 4 6 4 7 8 12 14
1 3 6 9 11 13 11 10 11 13 15 13 10 8 9 9 8 7 8 7 7 7 7 6 nan nan nan 13 nan nan nan nan nan nan nan 18 20 19 22 22 21 20 21 23 21 23 17 16 18 24 24 19 17 23 22 23 25 24 22 18 19 19 19 19 19 18 17 14 11 8 5 5 4 5 5 6 6 2 2 6 6 7 9 12 16
2 5 5 9 11 10 9 9 11 12 15 14 15 13 10 9 8 8 11 10 8 7 8 7 8 nan nan 12 nan nan nan nan nan nan nan 20 19 18 20 23 21 18 22 23 22 22 21 20 23 26 22 23 22 21 21 21 22 20 22 22 22 21 22 22 22 21 20 17 14 12 7 6 4 4 4 6 5 4 4 5 7 6 5 7 13
6 4 5 9 11 10 9 10 11 12 14 14 16 16 14 11 10 11 12 11 11 11 9 7 7 10 11 10 nan 13 nan nan nan nan 18 21 19 18 19 17 nan 20 nan 23 19 24 21 22 21 19 21 25 23 23 21 20 21 21 23 22 23 23 23 21 22 24 22 19 17 16 12 6 5 4 4 4 4 4 6 8 7 6 5 6 6
1 2 3 7 9 10 11 10 11 12 12 13 15 16 17 14 12 12 12 14 15 16 12 8 8 10 13 12 12 nan 15 nan nan 20 nan nan nan nan 16 17 19 21 nan 20 19 22 21 22 19 16 19 22 22 21 21 20 20 20 21 21 22 23 24 23 23 23 22 20 18 17 16 13 8 6 5 5 5 6 5 9 8 6 5 7 5
4 1 2 7 10 12 11 11 10 10 12 11 12 13 16 16 15 14 13 16 19 17 15 10 10 10 13 14 13 nan 12 15 18 nan 16 nan nan nan nan nan nan 19 17 18 19 18 19 20 19 15 16 20 20 20 19 20 19 19 19 19 19 20 21 22 21 21 22 22 21 18 17 17 15 11 9 7 6 8 8 9 9 8 7 4 3
4 3 4 7 9 11 12 12 11 9 9 10 12 12 15 16 16 16 16 16 17 19 19 13 12 12 12 12 nan 14 14 nan nan nan nan nan nan nan nan 17 18 18 16 19 20 17 19 20 20 16 16 21 19 19 19 18 18 17 18 17 15 17 19 18 21 21 21 22 23 21 19 19 19 18 15 9 9 10 10 12 11 8 8 6 4
3 4 4 5 8 10 12 10 10 10 9 9 8 9 14 13 14 16 16 16 17 19 21 17 15 15 14 15 15 15 nan nan 12 15 nan 16 14 nan 20 19 19 nan 18 20 18 19 21 21 22 20 19 21 21 21 20 19 19 19 18 17 15 17 15 16 17 19 20 21 21 21 20 20 20 21 20 17 12 12 12 12 11 9 8 8 6
3 4 4 7 8 11 10 10 9 9 8 8 8 8 11 13 13 13 14 14 16 18 22 18 16 17 16 16 15 14 nan 14 14 16 17 nan nan nan 16 20 20 17 17 20 18 20 23 22 22 23 19 20 24 23 24 22 22 21 21 20 20 19 20 19 17 16 17 18 19 21 23 22 20 21 21 20 17 15 12 11 10 10 9 10 10
5 5 6 7 7 8 8 9 9 7 7 7 8 8 10 10 11 12 13 13 14 17 19 18 16 16 18 17 16 15 13 14 15 15 15 15 16 18 16 18 18 18 18 18 18 18 20 21 20 22 20 22 25 22 23 22 23 22 21 21 22 21 21 21 21 19 18 18 19 19 19 19 19 18 20 20 18 18 14 11 11 11 11 11 10
5 5 7 7 9 10 8 8 8 7 7 8 8 9 10 11 12 12 12 12 12 15 18 17 15 15 15 16 16 14 15 13 15 16 16 15 15 16 16 16 15 15 15 16 16 16 18 19 19 19 19 20 19 19 21 21 20 21 20 20 20 19 20 20 21 21 20 20 20 19 17 18 19 19 20 19 18 17 17 15 13 12 12 11 10
6 6 6 6 8 8 7 8 7 8 8 10 10 10 12 12 13 13 13 13 14 14 16 15 14 15 13 13 15 14 13 13 12 13 14 13 13 14 14 12 13 13 14 nan nan 15 16 17 16 17 17 16 17 18 19 20 19 19 19 19 18 18 18 20 19 20 20 19 20 20 20 19 20 17 16 16 17 16 16 16 16 15 14 12 12
6 5 6 7 7 7 7 8 8 9 10 12 14 12 13 12 14 15 14 14 14 15 15 15 16 15 14 14 14 13 11 11 13 13 12 12 12 12 13 13 13 13 13 nan nan nan 15 17 16 15 14 14 15 16 17 19 19 19 19 18 17 16 17 18 18 18 17 17 18 18 18 20 20 19 18 17 16 15 14 15 15 13 12 13 12
5 5 6 6 7 7 6 7 8 11 14 12 12 13 13 15 15 16 17 17 16 15 16 16 16 17 16 16 15 13 11 11 12 13 13 13 13 14 15 14 14 15 16 15 15 15 16 16 18 17 14 14 15 16 16 19 19 19 20 18 18 17 16 15 15 16 15 15 16 15 16 17 18 19 21 20 18 16 16 14 12 10 10 11 11
5 6 6 5 6 5 6 6 9 11 12 11 12 15 14 15 15 14 15 15 16 16 15 16 15 16 17 18 17 14 13 14 13 14 14 14 14 16 16 16 15 15 16 16 16 16 16 16 15 17 17 14 nan nan 16 17 16 18 20 20 18 18 17 17 17 16 16 15 13 14 15 15 15 16 17 17 17 17 15 14 14 13 9 12 11
5 6 5 6 6 5 6 8 10 11 12 12 13 12 13 14 13 14 13 13 14 14 14 14 15 15 15 15 16 14 15 13 12 14 14 14 14 13 15 16 16 15 14 15 16 14 15 14 14 14 17 16 16 nan 16 nan nan nan 20 20 20 19 19 18 18 18 16 15 14 nan nan 13 13 13 13 nan 15 14 16 17 16 14 15 15 12
6 5 6 6 5 6 7 8 10 10 11 11 10 11 10 11 10 10 11 11 12 13 13 13 13 12 12 13 14 13 14 13 9 nan nan 14 14 13 13 14 15 15 12 12 14 nan nan 13 nan 13 15 15 16 15 15 15 nan nan 15 18 16 nan nan nan 18 19 19 18 15 nan nan nan nan 13 nan 10 nan nan 12 12 12 13 15 14 12
6 5 6 6 7 7 7 8 9 10 9 9 9 9 10 9 10 10 10 10 10 10 11 11 10 11 11 11 11 11 12 10 10 10 10 13 14 13 13 12 12 14 14 12 12 13 nan nan 13 13 13 16 14 17 15 14 14 nan nan nan nan nan nan nan nan 18 16 15 16 17 nan nan nan 15 nan 13 12 nan 10 11 11 11 10 11 13
6 5 5 7 5 7 7 7 9 9 8 8 8 10 11 10 11 10 10 10 9 10 10 10 9 10 9 9 9 10 10 10 11 11 10 11 12 13 13 11 11 12 11 12 12 12 12 12 12 14 14 15 15 14 16 16 15 16 nan nan nan nan nan nan nan nan nan 16 nan nan nan nan nan 14 nan nan 13 10 10 nan 14 12 11 nan 10
5 4 5 7 5 6 6 7 7 8 7 8 8 9 10 12 11 10 10 9 8 9 10 10 10 10 9 9 9 10 10 10 11 12 11 11 11 12 12 10 9 11 11 11 10 11 11 12 14 14 15 15 15 15 14 15 17 nan 18 18 nan 18 nan nan nan nan 16 16 16 17 17 18 nan nan nan nan nan nan 11 nan 9 11 12 nan 10
4 4 5 7 5 5 6 6 7 8 8 7 9 10 9 10 10 9 10 9 10 10 10 10 11 10 10 10 10 9 9 10 10 10 11 10 12 12 10 10 10 10 9 10 11 11 13 14 15 16 16 15 15 14 14 15 14 16 14 15 19 20 nan nan nan nan nan nan 13 nan nan 16 16 nan 15 nan nan nan nan 12 nan nan 10 11 9
3 3 5 5 5 5 5 5 6 7 7 6 9 10 9 11 11 10 10 11 11 11 11 10 10 11 10 10 10 10 9 10 10 12 12 13 13 13 12 11 11 12 12 12 12 14 15 16 19 17 18 17 18 17 19 18 19 16 17 nan 14 14 15 nan nan 12 nan nan nan nan nan 11 nan nan nan 14 nan nan nan 14 13 nan nan nan nan
2 2 3 3 4 4 3 4 5 6 5 6 9 8 9 11 10 12 10 9 10 9 9 12 13 14 13 14 13 12 11 11 13 12 13 13 15 15 16 15 13 15 15 16 17 17 19 19 20 20 21 19 21 22 22 23 21 19 19 19 18 18 nan nan nan nan nan nan nan nan nan nan 10 14 13 nan 16 nan nan nan nan nan nan 14 15
3 2 2 2 2 3 2 4 4 5 4 5 7 6 9 10 9 11 10 9 9 10 11 12 14 14 14 15 15 13 12 11 11 13 12 12 14 15 16 16 16 18 18 19 19 21 21 20 21 23 23 22 22 22 22 23 22 22 22 21 21 22 22 21 20 nan 18 nan nan nan nan nan nan nan nan 16 15 nan nan nan nan nan nan nan nan
Wind_Direction
276 279 281 281 280 279 280 279 277 276 276 277 277 276 276 276 277 278 278 279 278 277 276 275 273 272 270 269 269 269 269 268 268 268 268 267 265 262 260 259 258 257 256 256 254 251 252 251 251 251 248 243 244 237 229 244 243 244 245 246 247 248 248 248 248 248 248 249 250 252 253 255 257 262 264 263 265 267 273 277 278 275 274 274 280
277 277 277 278 278 277 278 278 277 277 277 278 279 278 279 279 279 280 280 279 278 277 276 274 272 271 271 nan 273 274 275 274 275 275 273 271 267 265 263 261 260 258 259 258 256 253 251 249 245 246 248 245 247 244 232 228 236 238 241 241 243 246 247 247 246 246 246 246 244 244 244 245 248 254 259 263 262 263 267 274 278 272 269 277 280
276 276 277 277 276 278 278 278 278 278 279 280 279 279 278 278 279 278 278 278 277 276 275 275 276 276 277 277 nan nan 279 279 279 279 276 272 269 267 265 264 263 259 256 257 254 252 249 247 243 242 241 242 245 246 240 232 233 236 237 238 240 241 243 242 241 240 239 238 237 236 234 235 240 244 254 259 258 258 262 267 270 274 262 278 280
278 277 280 280 278 279 278 278 278 279 280 280 280 279 279 280 277 277 275 273 275 277 278 280 281 283 284 284 281 nan nan 280 278 277 276 272 274 274 272 266 262 260 257 254 251 247 246 245 243 239 238 239 242 240 240 227 224 232 233 235 234 235 236 236 235 233 233 233 233 233 245 245 240 239 239 235 243 253 255 260 266 263 269 273 279
281 284 285 285 282 279 278 278 281 282 281 282 281 281 282 279 278 278 276 277 276 279 281 284 286 286 285 286 285 281 nan 282 281 282 282 281 283 286 281 273 266 262 260 253 250 244 242 242 243 239 239 239 240 237 236 234 223 207 224 230 229 230 230 231 231 232 232 230 231 234 244 239 244 243 253 249 241 252 258 264 266 261 264 270 275
282 285 284 283 281 278 278 281 282 282 282 282 282 282 280 280 278 278 279 279 280 281 284 286 287 287 286 285 284 285 284 285 286 285 287 289 292 291 287 281 269 263 260 253 246 248 245 244 242 240 245 242 235 231 230 231 216 210 218 226 227 227 229 230 232 233 232 231 232 245 248 253 254 256 256 263 261 261 264 265 268 264 263 270 272
283 286 283 281 281 281 282 282 282 283 282 282 280 280 280 280 280 280 nan nan 281 281 283 285 286 286 286 285 285 287 288 289 288 289 291 295 293 293 290 283 270 262 253 251 246 246 250 248 243 240 244 246 239 233 231 235 236 213 207 223 227 228 229 232 232 233 233 238 248 250 261 265 266 260 262 258 257 261 264 268 271 267 267 265 268
285 281 281 283 285 287 283 284 284 282 280 279 280 280 280 283 nan nan nan nan 280 282 281 284 287 287 287 288 286 289 293 293 292 295 296 297 295 294 290 284 268 258 250 247 243 244 251 250 244 245 244 245 243 243 234 240 237 216 205 219 225 229 230 231 232 233 235 251 260 267 269 264 262 264 259 257 260 262 267 271 271 273 262 263 262
283 283 285 287 288 286 284 284 282 278 278 279 281 282 285 284 nan nan nan 280 282 280 277 281 288 285 287 293 292 290 294 296 298 302 303 302 304 302 298 284 266 255 251 247 242 241 244 246 249 251 252 249 246 245 246 239 233 215 196 212 223 228 230 232 234 236 251 262 267 267 261 256 258 260 256 255 260 260 263 265 269 270 278 268 257
284 286 286 286 287 282 282 280 277 279 281 283 285 286 288 285 282 280 280 nan 279 277 270 279 289 285 290 297 295 294 294 298 305 306 310 316 314 310 301 285 263 249 249 247 236 236 238 235 240 245 246 245 241 240 237 229 217 213 193 215 221 228 230 234 236 246 257 261 260 257 260 264 260 254 248 253 255 257 255 254 248 266 264 275 273
280 282 285 285 284 282 281 277 279 284 286 288 289 290 286 284 281 282 280 nan 279 271 271 282 291 293 293 298 296 296 298 301 308 309 317 329 326 322 308 279 263 242 243 243 232 234 229 223 222 230 230 234 238 231 212 209 207 196 183 211 217 222 228 233 233 250 247 242 246 249 255 257 261 262 259 258 259 261 262 255 250 261 264 260 259
nan 283 284 287 287 284 282 284 289 291 292 292 291 289 287 283 283 280 277 nan nan 274 276 287 295 296 299 298 297 296 299 301 308 311 320 329 336 333 327 289 267 247 235 213 215 212 208 212 207 205 204 207 212 213 201 188 194 176 167 199 205 214 223 223 232 240 243 245 252 255 252 253 253 262 265 264 264 262 264 263 267 272 271 265 263
286 288 290 296 294 295 294 296 298 296 297 293 293 292 288 285 280 279 nan nan nan 278 280 290 294 297 300 301 300 297 299 302 305 316 323 331 336 334 336 309 253 221 181 179 186 180 187 188 181 184 188 187 194 198 186 168 181 161 177 190 200 211 216 216 236 243 247 250 249 251 257 257 258 260 266 267 265 264 268 268 270 269 269 268 268
287 296 306 299 306 306 306 305 303 302 298 298 296 295 289 286 288 nan nan nan nan 278 284 289 295 299 305 308 305 302 297 298 311 330 334 353 1 10 51 18 144 140 137 150 155 147 152 160 155 159 170 182 186 187 179 167 170 164 179 189 197 209 214 222 245 250 249 249 249 253 259 256 254 256 258 267 269 266 267 267 270 268 270 269 269
302 297 298 306 314 315 312 311 309 306 303 301 300 298 297 301 nan nan nan nan nan nan 288 294 300 306 312 318 323 312 304 303 327 349 5 25 38 59 85 81 112 127 127 130 134 133 144 160 148 144 160 173 187 175 166 170 151 149 167 187 198 214 219 237 243 247 251 248 248 249 257 248 248 252 256 260 265 265 265 268 269 269 272 274 274
252 290 313 315 316 326 322 317 312 310 310 306 306 309 313 313 311 nan nan nan nan nan 303 311 313 317 323 333 333 327 316 311 342 15 51 53 47 59 79 90 109 117 121 115 107 112 125 133 138 138 150 167 182 152 142 152 130 124 175 187 200 217 221 229 239 248 251 253 253 248 248 251 248 249 260 264 261 264 266 263 265 268 268 275 280
272 286 300 310 321 329 326 324 323 318 317 313 317 325 326 319 nan nan nan nan nan nan 331 330 333 329 337 342 345 339 339 356 13 56 68 65 59 65 72 89 101 111 110 106 105 108 118 130 129 125 138 162 153 130 140 137 110 115 148 190 211 220 220 236 236 241 240 245 243 248 236 242 246 249 259 266 266 267 271 268 265 270 275 278 284
291 300 307 313 320 329 329 330 340 337 335 329 332 336 331 333 339 nan nan nan nan nan nan 351 353 354 356 357 356 2 28 50 45 51 65 71 82 67 77 84 93 95 95 103 105 110 115 104 101 125 146 131 129 143 147 97 88 109 141 198 222 224 224 219 240 238 244 250 249 241 241 241 239 244 252 256 268 269 272 274 269 269 273 273 278
298 309 324 328 330 336 334 333 336 341 340 345 348 347 342 349 352 11 nan nan nan nan nan nan nan nan 14 22 11 34 54 59 50 56 63 69 82 86 89 89 93 93 92 93 94 93 79 85 94 119 114 96 143 161 107 87 106 146 180 199 212 218 230 231 210 245 246 237 236 233 232 248 238 243 253 254 259 267 272 275 267 267 272 264 269
306 317 323 331 333 329 336 337 343 345 343 344 346 352 355 357 8 19 nan nan nan nan nan nan nan nan 19 31 35 36 58 62 51 62 66 64 66 76 84 89 92 94 94 93 88 83 79 81 91 92 94 117 171 104 92 112 141 187 190 195 210 224 215 216 223 240 241 250 244 237 239 247 258 254 259 261 257 256 263 267 266 268 271 263 264
330 328 330 335 328 334 336 345 350 349 347 355 347 9 355 12 12 34 16 nan nan nan nan nan nan nan nan nan 44 49 48 51 52 63 57 64 62 74 77 80 85 87 91 98 99 102 103 101 99 106 129 149 132 109 134 145 178 193 195 198 227 244 286 175 221 229 229 221 240 236 239 241 241 250 264 268 267 247 258 264 263 267 269 262 265
348 329 347 340 345 350 342 350 355 359 1 10 345 15 31 18 26 19 35 nan 8 3 38 nan nan 41 nan 69 62 63 54 49 59 70 61 64 56 66 75 74 79 85 90 90 95 102 112 120 127 140 136 124 129 120 115 150 183 185 188 203 238 294 12 61 206 210 201 201 232 227 234 236 235 241 245 252 267 272 254 248 252 265 265 260 265
345 344 354 345 358 1 356 354 360 3 20 26 339 17 36 64 6 25 32 21 27 11 nan nan nan nan nan nan 62 nan nan 47 56 61 64 56 65 69 74 79 79 85 88 88 84 95 106 114 132 132 120 115 95 105 108 121 142 164 186 162 318 54 39 18 159 110 172 220 230 232 233 235 232 222 225 240 248 247 244 241 245 243 249 254 259
329 341 356 354 5 6 3 8 9 22 17 18 4 9 51 67 43 nan 53 35 27 35 32 40 nan nan nan nan 69 nan nan 62 nan 63 60 71 53 69 68 79 78 73 76 77 81 91 94 90 112 98 82 84 68 78 105 108 101 122 143 126 158 132 48 58 50 46 191 241 238 236 232 230 229 225 226 235 236 239 239 244 203 210 197 246 250
5 353 356 7 4 10 13 19 15 30 42 27 24 19 52 53 53 44 47 42 nan 51 48 40 59 71 nan nan nan 74 nan nan 55 72 66 58 60 60 62 59 64 71 62 73 64 57 60 56 74 87 83 89 86 90 83 92 101 94 88 84 110 61 44 50 40 44 47 220 241 241 239 235 225 221 222 235 262 265 262 255 208 198 175 181 234
334 353 1 13 1 4 15 23 23 27 43 39 44 28 50 54 44 67 68 nan nan 69 nan 45 nan 78 73 nan 82 nan nan nan 69 62 nan 63 63 71 75 78 72 77 69 69 67 47 51 55 68 85 86 85 71 60 62 69 58 57 67 71 61 40 39 48 47 49 41 22 204 244 248 214 211 213 214 217 265 292 323 281 241 200 179 164 175
341 11 52 34 31 29 17 30 26 30 35 42 31 38 60 69 29 54 67 59 47 59 nan 61 nan 74 84 80 nan nan nan nan nan 75 69 nan 69 72 78 79 81 82 81 66 78 65 49 46 51 61 62 72 67 60 72 80 75 58 62 60 56 48 46 50 52 46 43 55 74 263 223 157 189 207 202 189 219 291 13 253 223 199 183 170 153
13 23 28 37 32 22 23 28 40 41 47 36 34 39 71 74 68 42 46 63 52 67 73 80 66 nan 87 86 nan nan nan nan nan nan nan 76 80 71 75 73 77 78 76 72 64 76 53 74 105 95 97 91 72 85 72 77 82 75 66 59 58 52 49 53 55 49 39 51 76 82 60 102 162 188 193 187 183 233 204 180 188 185 178 170 157
41 27 42 37 31 27 22 31 38 44 51 51 44 51 59 71 81 82 72 69 66 57 71 76 nan nan nan 86 nan nan nan nan nan nan nan 78 80 79 86 76 71 72 78 77 74 76 62 51 56 62 69 73 43 43 43 40 52 55 65 60 61 56 52 53 54 50 45 49 67 73 80 95 140 177 173 185 180 137 196 149 172 171 169 167 158
47 35 46 51 34 20 17 27 42 46 51 50 50 54 65 68 79 82 85 84 69 63 76 60 68 nan nan 92 nan nan nan nan nan nan nan 86 73 73 80 83 78 71 76 75 77 77 74 61 55 65 69 75 72 69 66 61 59 62 66 62 63 62 57 52 53 52 48 49 60 69 80 92 104 156 155 166 175 128 192 163 152 165 165 165 155
30 21 33 39 41 20 29 26 31 40 50 48 52 51 54 66 67 69 78 88 91 78 65 74 78 81 76 76 nan 74 nan nan nan nan 86 85 78 68 68 76 nan 70 nan 73 72 77 71 74 71 64 68 71 73 73 72 72 70 61 64 62 61 62 61 58 55 55 50 49 54 62 71 76 76 94 118 136 129 122 150 145 153 169 175 154 113
71 56 49 49 37 27 26 35 33 43 47 50 49 53 58 60 68 73 78 78 77 78 78 71 81 87 86 74 67 nan 79 nan nan 83 nan nan nan nan 72 74 76 72 nan 79 71 79 75 77 78 67 68 74 77 76 74 70 69 69 66 60 63 65 62 58 56 56 54 53 56 64 67 68 63 66 86 112 100 92 98 96 105 124 139 162 170
131 74 49 37 30 27 27 31 38 43 44 45 55 56 64 64 67 72 74 80 80 81 79 67 68 80 95 88 78 nan 82 87 95 nan 90 nan nan nan nan nan nan 62 64 78 71 77 77 80 78 72 72 77 75 81 79 77 74 70 62 58 62 66 62 60 60 61 59 58 59 59 62 65 67 58 62 84 88 84 95 94 89 86 98 103 128
93 115 57 40 34 30 27 27 33 39 43 50 51 53 71 67 66 69 67 72 85 86 85 75 74 77 81 93 nan 89 72 nan nan nan nan nan nan nan nan 69 66 69 66 75 67 70 75 77 85 71 67 73 75 73 77 77 78 73 75 73 66 74 70 59 57 59 60 62 62 59 58 67 72 73 70 67 74 75 81 93 94 95 87 76 73
92 64 54 47 38 27 24 26 30 33 47 50 58 63 65 67 70 68 69 66 74 85 88 81 74 74 78 85 85 87 nan nan 88 84 nan 79 68 nan 72 74 65 nan 61 72 73 75 75 74 79 77 70 76 77 75 71 73 72 73 72 73 60 51 62 70 69 59 58 61 65 66 66 62 62 72 76 73 71 64 68 73 78 74 68 70 65
53 46 46 47 29 21 14 14 24 32 46 56 56 58 68 76 73 73 72 73 76 82 87 84 82 81 78 79 84 90 nan 81 78 81 79 nan nan nan 73 75 76 66 71 79 70 74 78 72 75 77 72 78 76 74 76 70 69 72 66 61 63 59 51 50 53 53 53 61 63 64 66 65 67 68 68 74 74 71 58 63 68 60 51 52 51
51 44 45 43 16 7 15 18 25 38 50 60 61 65 72 78 78 78 77 77 72 81 84 82 76 83 87 80 81 84 86 93 86 81 78 76 72 76 76 84 88 83 74 67 69 68 70 72 66 72 65 58 70 72 72 68 70 66 66 65 65 65 62 60 54 49 42 50 55 61 66 70 71 64 70 73 68 74 69 61 57 51 53 54 49
59 51 43 35 13 10 12 29 39 51 62 69 74 70 69 70 78 80 87 85 84 87 87 88 85 77 81 89 89 82 83 83 92 86 78 74 75 77 78 84 83 87 87 81 69 66 65 66 61 62 64 65 62 71 73 69 66 67 65 62 62 64 67 66 67 63 57 46 45 51 57 67 65 66 68 69 71 67 71 64 55 54 50 51 51
61 43 36 20 20 8 13 36 49 57 70 75 65 63 68 73 75 82 80 84 83 84 89 91 85 86 78 83 89 84 86 88 81 89 90 88 84 80 79 76 73 72 74 nan nan 66 70 64 62 57 61 59 64 54 64 70 71 64 61 62 59 59 61 65 62 66 62 62 58 51 46 49 58 61 67 69 69 64 66 67 68 71 68 50 46
57 43 20 22 16 17 17 44 55 68 67 77 74 73 76 77 74 77 81 83 84 86 86 86 89 86 79 74 73 79 84 88 91 84 83 88 87 86 88 78 69 62 64 nan nan nan 67 72 61 60 54 60 63 61 64 59 59 60 62 57 58 55 54 58 60 62 62 60 59 65 66 58 49 51 56 57 61 71 67 65 63 61 66 60 50
48 30 26 23 27 29 37 50 61 75 80 74 91 86 77 73 77 71 71 73 73 73 80 84 85 90 94 85 78 72 74 80 90 91 90 85 84 85 81 80 81 80 70 65 71 71 71 72 74 55 53 55 68 68 75 62 49 53 53 51 51 49 47 49 56 53 56 56 56 47 58 67 64 53 48 51 53 57 59 62 70 64 56 66 59
39 30 36 34 46 46 50 62 74 80 83 89 84 89 90 82 78 81 83 83 82 81 77 81 84 84 86 93 91 83 67 73 72 78 77 77 82 81 81 76 72 80 81 71 66 73 73 74 77 78 60 51 nan nan 70 70 62 63 60 51 48 47 50 50 46 49 46 50 53 52 44 49 57 61 53 46 46 38 53 60 66 62 48 52 46
33 37 44 42 60 77 75 76 82 75 79 81 77 80 81 87 82 75 70 74 80 79 81 76 78 79 83 87 92 94 80 65 74 79 82 76 70 78 83 81 72 66 75 82 73 68 71 69 74 78 77 57 50 nan 61 nan nan nan 53 47 43 44 51 48 48 41 40 40 40 nan nan 55 54 60 58 nan 42 35 24 31 36 45 43 41 41
51 44 53 58 77 88 83 87 86 85 87 85 85 80 82 72 77 74 75 69 63 64 64 65 64 68 77 80 84 78 86 83 61 nan nan 86 76 67 73 83 87 74 60 72 79 nan nan 67 nan 69 72 65 57 54 63 57 nan nan 54 54 51 nan nan nan 49 43 30 26 27 nan nan nan nan 50 nan 56 nan nan 22 21 19 21 28 32 33
64 60 62 73 82 75 88 93 88 93 83 81 76 71 68 73 70 66 66 65 66 71 68 67 67 67 61 64 73 77 78 91 86 65 69 72 78 62 59 62 74 81 69 54 60 67 nan nan 65 58 65 61 62 53 50 56 49 nan nan nan nan nan nan nan nan 43 42 28 23 21 nan nan nan 36 nan 41 48 nan 35 12 9 7 14 12 5
74 79 82 89 96 93 94 96 99 91 84 71 69 68 68 62 65 65 62 60 59 63 70 67 66 68 64 72 69 79 83 64 66 73 67 70 76 81 71 53 59 75 76 69 55 55 64 55 58 62 60 63 52 58 50 44 45 39 nan nan nan nan nan nan nan nan nan 33 nan nan nan nan nan 26 nan nan 30 29 38 nan 11 4 10 nan 3
80 85 96 98 101 105 97 100 97 91 78 71 71 79 71 70 66 67 70 68 65 65 64 70 62 52 58 57 68 65 65 72 61 58 54 58 66 78 87 74 65 73 71 72 77 69 61 65 56 52 58 61 58 49 53 53 44 nan 35 30 nan 38 nan nan nan nan 30 39 33 20 19 10 nan nan nan nan nan nan 18 nan 22 5 2 nan 0
65 83 113 112 111 111 101 100 96 84 78 75 74 75 78 77 75 70 71 70 62 58 60 63 62 61 51 47 51 61 63 71 77 64 64 72 82 81 85 92 78 70 78 86 74 73 79 70 68 56 50 56 58 57 52 56 49 55 55 46 31 33 nan nan nan nan nan nan 25 nan nan 3 7 nan 10 nan nan nan nan 5 nan nan 1 357 356
87 116 89 120 129 113 105 98 89 87 86 71 77 75 74 75 75 71 64 68 65 62 63 66 72 65 60 67 60 64 74 76 66 71 76 75 76 81 83 85 90 93 88 76 78 79 69 72 77 74 61 52 53 49 48 42 44 39 40 nan 37 35 23 nan nan 29 nan nan nan nan nan 357 nan nan nan 4 nan nan nan 353 351 nan nan nan nan
159 106 109 127 123 117 103 83 78 84 86 76 78 72 71 74 78 78 74 78 90 87 78 73 69 68 68 63 62 62 67 74 82 82 78 77 78 77 77 80 84 88 84 84 79 74 75 69 67 67 66 60 55 43 45 39 34 33 29 26 24 19 nan nan nan nan nan nan nan nan nan nan 357 10 2 nan 356 nan nan nan nan nan nan 348 346
198 117 163 108 104 119 89 76 68 85 71 72 75 62 72 69 73 84 82 72 76 82 80 77 76 75 69 67 67 70 75 80 87 90 76 75 75 77 81 80 79 77 80 80 78 75 70 66 62 56 57 47 48 45 40 37 28 28 26 25 22 9 8 8 2 nan 358 nan nan nan nan nan nan nan nan 0 351 nan nan nan nan nan nan nan nan